When you browse on this site, cookies collect data to enhance your experience and personalize the content and advertising you see.
Visit our Privacy Policy to learn more. By continuing to use the site, you agree to this use of cookies and data.
  • In Spain
  • List of Countries
  • For 7 days
  • Water Temperature
  • Weather Map
  • Weather Widgets
  • user-avatar
    Login

    Hourly Weather Aden

    Today, 17 November, Sunday

    Time Temperature Precipitation Wind Pressure Humidity
    00:00 +28°C° 0 mm 8 mps 759 mmHg 71%
    01:00 +28°C° 0 mm 9 mps 758 mmHg 71%
    02:00 +28°C° 0 mm 9 mps 758 mmHg 71%
    03:00 +28°C° 0 mm 9 mps 757 mmHg 71%
    04:00 +27°C° 0 mm 9 mps 758 mmHg 71%
    05:00 +27°C° 0 mm 9 mps 758 mmHg 71%
    06:00 +27°C° 0 mm 10 mps 758 mmHg 72%
    07:00 +28°C° 0 mm 10 mps 759 mmHg 65%
    08:00 +31°C° 0 mm 10 mps 759 mmHg 58%
    09:00 +32°C° 0 mm 10 mps 759 mmHg 51%
    10:00 +32°C° 0 mm 10 mps 759 mmHg 49%
    11:00 +33°C° 0 mm 10 mps 758 mmHg 48%
    12:00 +34°C° 0 mm 10 mps 758 mmHg 46%
    13:00 +33°C° 0 mm 10 mps 757 mmHg 48%
    14:00 +33°C° 0 mm 9 mps 757 mmHg 50%
    15:00 +33°C° 0 mm 9 mps 756 mmHg 52%
    16:00 +32°C° 0 mm 9 mps 757 mmHg 56%
    17:00 +31°C° 0 mm 9 mps 758 mmHg 60%
    18:00 +29°C° 0 mm 8 mps 758 mmHg 64%
    19:00 +29°C° 0 mm 8 mps 759 mmHg 65%
    20:00 +28°C° 0 mm 8 mps 759 mmHg 67%
    21:00 +28°C° 0 mm 8 mps 759 mmHg 68%
    22:00 +28°C° 0 mm 9 mps 759 mmHg 69%
    23:00 +28°C° 0 mm 9 mps 759 mmHg 69%

    Tomorrow, 18 November, Monday

    Time Temperature Precipitation Wind Pressure Humidity
    00:00 +28°C° 0 mm 9 mps 759 mmHg 70%
    01:00 +27°C° 0 mm 9 mps 759 mmHg 70%
    02:00 +27°C° 0 mm 9 mps 758 mmHg 70%
    03:00 +27°C° 0 mm 9 mps 758 mmHg 69%
    04:00 +27°C° 0 mm 9 mps 758 mmHg 69%
    05:00 +27°C° 0 mm 9 mps 759 mmHg 68%
    06:00 +26°C° 0 mm 9 mps 759 mmHg 67%
    07:00 +28°C° 0 mm 9 mps 759 mmHg 62%
    08:00 +29°C° 0 mm 9 mps 760 mmHg 58%
    09:00 +31°C° 0 mm 9 mps 760 mmHg 53%
    10:00 +32°C° 0 mm 9 mps 759 mmHg 50%
    11:00 +33°C° 0 mm 8 mps 759 mmHg 48%
    12:00 +34°C° 0 mm 8 mps 759 mmHg 45%
    13:00 +34°C° 0 mm 8 mps 758 mmHg 47%
    14:00 +33°C° 0 mm 7 mps 757 mmHg 48%
    15:00 +33°C° 0 mm 7 mps 757 mmHg 50%
    16:00 +32°C° 0 mm 7 mps 757 mmHg 58%
    17:00 +30°C° 0 mm 6 mps 757 mmHg 65%
    18:00 +29°C° 0 mm 6 mps 758 mmHg 73%
    19:00 +28°C° 0 mm 6 mps 758 mmHg 74%
    20:00 +28°C° 0 mm 6 mps 759 mmHg 75%
    21:00 +28°C° 0 mm 6 mps 759 mmHg 76%
    22:00 +28°C° 0 mm 6 mps 759 mmHg 78%
    23:00 +27°C° 0 mm 6 mps 759 mmHg 80%

    Day after tomorrow, 19 November, Tuesday

    Time Temperature Precipitation Wind Pressure Humidity
    00:00 +27°C° 0 mm 6 mps 759 mmHg 81%
    01:00 +27°C° 0 mm 6 mps 758 mmHg 82%
    02:00 +27°C° 0 mm 6 mps 758 mmHg 82%
    03:00 +27°C° 0 mm 6 mps 758 mmHg 82%
    04:00 +27°C° 0 mm 6 mps 758 mmHg 82%
    05:00 +27°C° 0 mm 6 mps 759 mmHg 81%
    06:00 +26°C° 0 mm 6 mps 759 mmHg 80%
    07:00 +28°C° 0 mm 6 mps 759 mmHg 72%
    08:00 +30°C° 0 mm 7 mps 759 mmHg 64%
    09:00 +32°C° 0 mm 7 mps 760 mmHg 55%
    10:00 +33°C° 0 mm 7 mps 759 mmHg 54%
    11:00 +34°C° 0 mm 7 mps 758 mmHg 52%
    12:00 +35°C° 0 mm 7 mps 758 mmHg 50%
    13:00 +34°C° 0 mm 7 mps 757 mmHg 52%
    14:00 +34°C° 0 mm 6 mps 757 mmHg 53%
    15:00 +34°C° 0 mm 6 mps 756 mmHg 55%
    16:00 +33°C° 0 mm 6 mps 756 mmHg 62%
    17:00 +30°C° 0 mm 6 mps 757 mmHg 68%
    18:00 +29°C° 0 mm 6 mps 757 mmHg 75%
    19:00 +29°C° 0 mm 6 mps 757 mmHg 77%
    20:00 +29°C° 0 mm 6 mps 758 mmHg 78%
    21:00 +28°C° 0 mm 6 mps 758 mmHg 80%
    22:00 +28°C° 0 mm 6 mps 758 mmHg 81%
    23:00 +28°C° 0 mm 6 mps 758 mmHg 82%

    20 November, Wednesday

    Time Temperature Precipitation Wind Pressure Humidity
    00:00 +28°C° 0 mm 6 mps 758 mmHg 83%
    01:00 +28°C° 0 mm 6 mps 757 mmHg 84%
    02:00 +27°C° 0 mm 6 mps 757 mmHg 85%
    03:00 +27°C° 0 mm 6 mps 757 mmHg 86%
    04:00 +27°C° 0 mm 6 mps 757 mmHg 86%
    05:00 +27°C° 0 mm 5 mps 757 mmHg 86%
    06:00 +27°C° 0 mm 5 mps 757 mmHg 86%
    07:00 +28°C° 0 mm 6 mps 757 mmHg 77%
    08:00 +30°C° 0 mm 6 mps 758 mmHg 68%
    09:00 +33°C° 0 mm 6 mps 758 mmHg 59%
    10:00 +33°C° 0 mm 6 mps 758 mmHg 57%
    11:00 +34°C° 0 mm 6 mps 757 mmHg 55%
    12:00 +35°C° 0 mm 6 mps 756 mmHg 53%
    13:00 +34°C° 0 mm 6 mps 756 mmHg 54%
    14:00 +34°C° 0 mm 6 mps 756 mmHg 54%
    15:00 +34°C° 0 mm 6 mps 755 mmHg 55%
    16:00 +33°C° 0 mm 6 mps 755 mmHg 61%
    17:00 +32°C° 0 mm 6 mps 756 mmHg 66%
    18:00 +30°C° 0 mm 6 mps 756 mmHg 72%
    19:00 +29°C° 0 mm 6 mps 756 mmHg 74%
    20:00 +29°C° 0 mm 7 mps 757 mmHg 75%
    21:00 +29°C° 0 mm 7 mps 757 mmHg 77%
    22:00 +29°C° 0 mm 7 mps 757 mmHg 78%
    23:00 +29°C° 0 mm 7 mps 757 mmHg 79%

    21 November, Thursday

    Time Temperature Precipitation Wind Pressure Humidity
    00:00 +28°C° 0 mm 7 mps 757 mmHg 80%
    01:00 +28°C° 0 mm 7 mps 757 mmHg 80%
    02:00 +28°C° 0 mm 7 mps 756 mmHg 81%
    03:00 +28°C° 0 mm 8 mps 756 mmHg 81%
    04:00 +28°C° 0 mm 8 mps 756 mmHg 80%
    05:00 +28°C° 0 mm 8 mps 757 mmHg 78%
    06:00 +28°C° 0 mm 8 mps 757 mmHg 77%
    07:00 +29°C° 0 mm 8 mps 757 mmHg 71%
    08:00 +31°C° 0 mm 9 mps 758 mmHg 65%
    09:00 +33°C° 0 mm 9 mps 758 mmHg 59%
    10:00 +33°C° 0 mm 9 mps 758 mmHg 56%
    11:00 +34°C° 0 mm 9 mps 757 mmHg 52%
    12:00 +35°C° 0 mm 9 mps 757 mmHg 49%
    13:00 +34°C° 0 mm 9 mps 756 mmHg 52%
    14:00 +34°C° 0 mm 9 mps 756 mmHg 55%
    15:00 +33°C° 0 mm 8 mps 756 mmHg 58%
    16:00 +32°C° 0 mm 8 mps 756 mmHg 62%
    17:00 +32°C° 0 mm 8 mps 756 mmHg 66%
    18:00 +31°C° 0 mm 8 mps 756 mmHg 70%
    19:00 +31°C° 0 mm 8 mps 757 mmHg 70%
    20:00 +29°C° 0 mm 9 mps 757 mmHg 71%
    21:00 +29°C° 0 mm 9 mps 758 mmHg 71%
    22:00 +29°C° 0 mm 9 mps 758 mmHg 70%
    23:00 +29°C° 0 mm 10 mps 758 mmHg 70%

    22 November, Friday

    Time Temperature Precipitation Wind Pressure Humidity
    00:00 +29°C° 0 mm 10 mps 758 mmHg 69%
    01:00 +29°C° 0 mm 10 mps 758 mmHg 70%
    02:00 +29°C° 0 mm 10 mps 758 mmHg 71%
    03:00 +29°C° 0 mm 10 mps 757 mmHg 72%
    04:00 +29°C° 0 mm 10 mps 758 mmHg 72%
    05:00 +29°C° 0 mm 11 mps 758 mmHg 73%
    06:00 +29°C° 0 mm 11 mps 758 mmHg 73%
    07:00 +31°C° 0 mm 11 mps 758 mmHg 67%
    08:00 +32°C° 0 mm 11 mps 759 mmHg 61%
    09:00 +33°C° 0 mm 12 mps 759 mmHg 55%
    10:00 +34°C° 0 mm 12 mps 759 mmHg 51%
    11:00 +36°C° 0 mm 12 mps 758 mmHg 46%
    12:00 +37°C° 0 mm 12 mps 758 mmHg 42%
    13:00 +36°C° 0 mm 12 mps 758 mmHg 43%
    14:00 +36°C° 0 mm 12 mps 757 mmHg 45%
    15:00 +34°C° 0 mm 12 mps 757 mmHg 47%
    16:00 +33°C° 0 mm 11 mps 757 mmHg 53%
    17:00 +32°C° 0 mm 11 mps 757 mmHg 59%
    18:00 +31°C° 0 mm 10 mps 758 mmHg 65%
    19:00 +31°C° 0 mm 10 mps 758 mmHg 67%
    20:00 +29°C° 0 mm 11 mps 759 mmHg 68%
    21:00 +29°C° 0 mm 11 mps 759 mmHg 69%
    22:00 +29°C° 0 mm 11 mps 759 mmHg 69%
    23:00 +29°C° 0 mm 11 mps 759 mmHg 70%
    Show more